DLH9MC EDDM-LHBP

Flight info

Callsign DLH9MC
Flight time 0h 56m
Altitude 33000
Route KIRDI3S KIRDI DCT BUWOQ DCT MAREG DCT ANEXA
Aircraft A320/M-SDE2E3FGIJ1LORWXYZ/HB1

Departure

Time 2026-05-07 20:34
Airport Munich Airport (EDDM)

Arrival

Time 2026-05-07 21:31
Airport Budapest Liszt Ferenc International Airport (LHBP)
Time Latitude Longitude Altitude Speed Heading
2026-05-07 19:57 48.35015 11.79367 1476 ft 0 kts 263°
2026-05-07 19:58 48.35015 11.79368 1476 ft 0 kts 263°
2026-05-07 20:25 48.35016 11.79379 1469 ft 4 kts 263°
2026-05-07 20:25 48.35019 11.79419 1476 ft 4 kts 263°
2026-05-07 20:25 48.35022 11.79459 1475 ft 3 kts 263°
2026-05-07 20:26 48.35026 11.79491 1475 ft 4 kts 243°
2026-05-07 20:26 48.35042 11.79518 1473 ft 4 kts 199°
2026-05-07 20:26 48.35066 11.79521 1476 ft 4 kts 173°
2026-05-07 20:26 48.35076 11.79519 1478 ft 0 kts 173°
2026-05-07 20:29 48.35047 11.79544 1475 ft 10 kts 137°
2026-05-07 20:29 48.35000 11.79621 1473 ft 9 kts 133°
2026-05-07 20:29 48.34955 11.79674 1483 ft 7 kts 161°
2026-05-07 20:29 48.34896 11.79686 1482 ft 9 kts 173°
2026-05-07 20:30 48.34836 11.79698 1485 ft 8 kts 170°
2026-05-07 20:30 48.34806 11.79759 1479 ft 9 kts 93°
2026-05-07 20:30 48.34815 11.79863 1482 ft 10 kts 82°
2026-05-07 20:30 48.34823 11.79964 1485 ft 12 kts 83°
2026-05-07 20:31 48.34831 11.80099 1485 ft 13 kts 92°
2026-05-07 20:31 48.34796 11.80191 1479 ft 9 kts 129°
2026-05-07 20:31 48.34751 11.80239 1482 ft 7 kts 168°
2026-05-07 20:31 48.34705 11.80248 1485 ft 6 kts 173°
2026-05-07 20:32 48.34644 11.80258 1485 ft 10 kts 173°
2026-05-07 20:32 48.34578 11.80269 1476 ft 9 kts 173°
2026-05-07 20:32 48.34521 11.80279 1472 ft 8 kts 173°
2026-05-07 20:32 48.34473 11.80263 1478 ft 8 kts 220°
2026-05-07 20:33 48.34460 11.80202 1482 ft 0 kts 264°
2026-05-07 20:33 48.34460 11.80196 1479 ft 5 kts 264°
2026-05-07 20:33 48.34434 11.79847 1481 ft 70 kts 263°
2026-05-07 20:33 48.34352 11.78788 1486 ft 131 kts 263°
2026-05-07 20:34 48.34231 11.77187 1558 ft 171 kts 264°
2026-05-07 20:34 48.34098 11.75436 2262 ft 169 kts 264°
2026-05-07 20:34 48.33963 11.73659 2876 ft 178 kts 264°
2026-05-07 20:34 48.33515 11.71825 3195 ft 202 kts 227°
2026-05-07 20:35 48.32232 11.70860 3579 ft 219 kts 187°
2026-05-07 20:35 48.30692 11.70753 4265 ft 223 kts 182°
2026-05-07 20:35 48.29143 11.70896 5113 ft 225 kts 168°
2026-05-07 20:35 48.27674 11.71807 5749 ft 239 kts 149°
2026-05-07 20:36 48.26233 11.73293 6144 ft 263 kts 147°
2026-05-07 20:36 48.24679 11.74897 6781 ft 276 kts 147°
2026-05-07 20:36 48.23060 11.76557 7148 ft 285 kts 148°
2026-05-07 20:36 48.21432 11.78220 7121 ft 282 kts 147°
2026-05-07 20:37 48.19978 11.80190 7086 ft 284 kts 130°
2026-05-07 20:37 48.18954 11.82724 7084 ft 286 kts 113°
2026-05-07 20:37 48.18463 11.85606 7083 ft 287 kts 95°
2026-05-07 20:37 48.18529 11.88590 7079 ft 288 kts 83°
2026-05-07 20:38 48.18752 11.91572 7082 ft 288 kts 84°
2026-05-07 20:38 48.18968 11.94550 7081 ft 288 kts 84°
2026-05-07 20:38 48.19180 11.97538 7134 ft 291 kts 84°
2026-05-07 20:38 48.19323 11.99550 7610 ft 293 kts 84°
2026-05-07 20:39 48.19537 12.02598 8576 ft 296 kts 84°
2026-05-07 20:39 48.19755 12.05687 9426 ft 301 kts 84°
2026-05-07 20:39 48.19978 12.08841 10209 ft 307 kts 84°
2026-05-07 20:39 48.20204 12.12056 10975 ft 312 kts 84°
2026-05-07 20:40 48.20429 12.15316 11753 ft 316 kts 84°
2026-05-07 20:40 48.20653 12.18617 12538 ft 320 kts 84°
2026-05-07 20:40 48.20880 12.21956 13314 ft 324 kts 84°
2026-05-07 20:40 48.21109 12.25336 14060 ft 328 kts 84°
2026-05-07 20:41 48.21343 12.28761 14740 ft 332 kts 84°
2026-05-07 20:41 48.21577 12.32217 15423 ft 335 kts 84°
2026-05-07 20:41 48.21809 12.35708 16108 ft 338 kts 84°
2026-05-07 20:41 48.22042 12.39240 16781 ft 342 kts 84°
2026-05-07 20:42 48.22279 12.42802 17461 ft 345 kts 83°
2026-05-07 20:42 48.22518 12.46399 18136 ft 349 kts 83°
2026-05-07 20:42 48.22759 12.50037 18745 ft 352 kts 83°
2026-05-07 20:42 48.23003 12.53707 19329 ft 355 kts 83°
2026-05-07 20:43 48.23080 12.57416 19895 ft 359 kts 94°
2026-05-07 20:43 48.22779 12.61219 20048 ft 376 kts 98°
2026-05-07 20:43 48.22405 12.65192 20179 ft 393 kts 98°
2026-05-07 20:43 48.22009 12.69312 20482 ft 403 kts 98°
2026-05-07 20:44 48.21602 12.73493 20964 ft 407 kts 98°
2026-05-07 20:44 48.21193 12.77709 21490 ft 410 kts 98°
2026-05-07 20:44 48.20831 12.81972 22012 ft 413 kts 93°
2026-05-07 20:44 48.20827 12.86231 22522 ft 416 kts 88°
2026-05-07 20:45 48.20904 12.90576 23044 ft 418 kts 88°
2026-05-07 20:45 48.20975 12.94948 23534 ft 422 kts 88°
2026-05-07 20:45 48.21043 12.99370 23944 ft 425 kts 88°
2026-05-07 20:45 48.21108 13.03812 24359 ft 428 kts 88°
2026-05-07 20:46 48.21168 13.08281 24777 ft 430 kts 88°
2026-05-07 20:46 48.21226 13.12771 25186 ft 432 kts 88°
2026-05-07 20:46 48.21281 13.17289 25594 ft 435 kts 89°
2026-05-07 20:46 48.21332 13.21827 25996 ft 437 kts 89°
2026-05-07 20:47 48.21385 13.26389 26394 ft 439 kts 89°
2026-05-07 20:47 48.21439 13.30981 26786 ft 441 kts 89°
2026-05-07 20:47 48.21494 13.35594 27174 ft 443 kts 89°
2026-05-07 20:47 48.21547 13.40219 27551 ft 446 kts 89°
2026-05-07 20:48 48.21598 13.44891 27915 ft 449 kts 89°
2026-05-07 20:48 48.21643 13.49586 28281 ft 451 kts 89°
2026-05-07 20:48 48.21689 13.54298 28650 ft 454 kts 89°
2026-05-07 20:48 48.21734 13.59041 29016 ft 456 kts 89°
2026-05-07 20:49 48.21781 13.63807 29372 ft 458 kts 89°
2026-05-07 20:49 48.21825 13.68589 29720 ft 460 kts 89°
2026-05-07 20:49 48.21862 13.73403 30060 ft 462 kts 89°
2026-05-07 20:49 48.21898 13.78226 30342 ft 465 kts 89°
2026-05-07 20:50 48.21933 13.83088 30578 ft 467 kts 89°
2026-05-07 20:50 48.21968 13.87972 30805 ft 470 kts 89°
2026-05-07 20:50 48.21997 13.92894 31039 ft 473 kts 90°
2026-05-07 20:50 48.22024 13.97836 31270 ft 476 kts 90°
2026-05-07 20:51 48.22049 14.02814 31511 ft 478 kts 90°
2026-05-07 20:51 48.22065 14.07740 31858 ft 478 kts 90°
2026-05-07 20:51 48.22077 14.12732 32192 ft 478 kts 90°
2026-05-07 20:51 48.22083 14.17720 32493 ft 479 kts 90°
2026-05-07 20:52 48.22086 14.22716 32757 ft 479 kts 90°
2026-05-07 20:52 48.22086 14.27722 32998 ft 480 kts 91°
2026-05-07 20:52 48.22085 14.32715 33072 ft 474 kts 91°
2026-05-07 20:53 48.22076 14.42472 33077 ft 465 kts 91°
2026-05-07 20:53 48.22059 14.52143 33075 ft 463 kts 91°
2026-05-07 20:54 48.22035 14.61809 33070 ft 463 kts 91°
2026-05-07 20:54 48.22007 14.71463 33051 ft 463 kts 91°
2026-05-07 20:55 48.21971 14.81144 33054 ft 465 kts 91°
2026-05-07 20:55 48.21929 14.90838 33052 ft 464 kts 91°
2026-05-07 20:56 48.21878 15.00524 33055 ft 464 kts 91°
2026-05-07 20:56 48.21825 15.10209 33054 ft 464 kts 91°
2026-05-07 20:57 48.21760 15.19831 33050 ft 464 kts 92°
2026-05-07 20:57 48.21680 15.29491 33057 ft 463 kts 92°
2026-05-07 20:58 48.21589 15.39138 33059 ft 463 kts 92°
2026-05-07 20:58 48.21493 15.48787 33053 ft 462 kts 92°
2026-05-07 20:59 48.21394 15.58418 33025 ft 462 kts 92°
2026-05-07 20:59 48.21287 15.68041 33038 ft 461 kts 93°
2026-05-07 21:00 48.21168 15.77654 33036 ft 461 kts 93°
2026-05-07 21:00 48.21042 15.87250 33060 ft 460 kts 93°
2026-05-07 21:01 48.20912 15.96838 33053 ft 460 kts 93°
2026-05-07 21:01 48.20768 16.06415 33026 ft 459 kts 94°
2026-05-07 21:02 48.20617 16.15985 33016 ft 459 kts 94°
2026-05-07 21:02 48.20463 16.25542 33029 ft 459 kts 94°
2026-05-07 21:03 48.20306 16.35105 33035 ft 459 kts 94°
2026-05-07 21:03 48.20139 16.44607 33040 ft 459 kts 94°
2026-05-07 21:04 48.19960 16.54173 33025 ft 459 kts 95°
2026-05-07 21:04 48.19763 16.63739 33031 ft 459 kts 95°
2026-05-07 21:05 48.19561 16.73310 33031 ft 460 kts 95°
2026-05-07 21:05 48.19358 16.82888 33024 ft 460 kts 95°
2026-05-07 21:06 48.19144 16.92473 33005 ft 460 kts 96°
2026-05-07 21:06 48.18016 17.01764 33010 ft 450 kts 112°
2026-05-07 21:07 48.16086 17.10694 33011 ft 451 kts 112°
2026-05-07 21:07 48.14185 17.19577 33012 ft 451 kts 112°
2026-05-07 21:08 48.12264 17.28513 33012 ft 451 kts 112°
2026-05-07 21:08 48.10327 17.37428 32992 ft 451 kts 113°
2026-05-07 21:09 48.08371 17.46339 32995 ft 451 kts 113°
2026-05-07 21:09 48.06420 17.55254 32998 ft 451 kts 113°
2026-05-07 21:09 48.05445 17.59710 32821 ft 451 kts 113°
2026-05-07 21:10 48.04476 17.64142 32451 ft 446 kts 113°
2026-05-07 21:10 48.03514 17.68527 31875 ft 443 kts 113°
2026-05-07 21:10 48.02550 17.72888 31318 ft 439 kts 114°
2026-05-07 21:10 48.01593 17.77196 30782 ft 437 kts 114°
2026-05-07 21:11 48.00635 17.81494 30239 ft 434 kts 114°
2026-05-07 21:11 47.99682 17.85749 29648 ft 431 kts 114°
2026-05-07 21:11 47.97810 17.94131 28623 ft 420 kts 114°
2026-05-07 21:12 47.96894 17.98245 28119 ft 416 kts 113°
2026-05-07 21:12 47.95988 18.02309 27646 ft 410 kts 113°
2026-05-07 21:12 47.95088 18.06327 27169 ft 406 kts 113°
2026-05-07 21:12 47.94195 18.10290 26696 ft 400 kts 114°
2026-05-07 21:13 47.93313 18.14195 26263 ft 395 kts 114°
2026-05-07 21:13 47.92440 18.18056 25806 ft 391 kts 114°
2026-05-07 21:13 47.91574 18.21883 25358 ft 387 kts 114°
2026-05-07 21:13 47.90715 18.25666 24890 ft 384 kts 114°
2026-05-07 21:14 47.89858 18.29429 24439 ft 381 kts 114°
2026-05-07 21:14 47.89009 18.33152 23972 ft 379 kts 114°
2026-05-07 21:14 47.88161 18.36860 23469 ft 377 kts 114°
2026-05-07 21:14 47.87319 18.40544 22966 ft 374 kts 114°
2026-05-07 21:15 47.86433 18.44105 22491 ft 367 kts 120°
2026-05-07 21:15 47.85161 18.47340 22012 ft 357 kts 132°
2026-05-07 21:15 47.83543 18.50071 21606 ft 347 kts 142°
2026-05-07 21:15 47.81672 18.52250 21190 ft 338 kts 152°
2026-05-07 21:16 47.79701 18.54123 20781 ft 335 kts 152°
2026-05-07 21:16 47.77751 18.55985 20363 ft 332 kts 152°
2026-05-07 21:16 47.75818 18.57836 19959 ft 329 kts 152°
2026-05-07 21:16 47.73896 18.59678 19555 ft 327 kts 152°
2026-05-07 21:17 47.71990 18.61504 19150 ft 325 kts 152°
2026-05-07 21:17 47.70090 18.63319 18730 ft 325 kts 152°
2026-05-07 21:17 47.68318 18.65441 18294 ft 331 kts 140°
2026-05-07 21:17 47.66766 18.67973 17833 ft 331 kts 137°
2026-05-07 21:18 47.65229 18.70516 17401 ft 330 kts 137°
2026-05-07 21:18 47.63694 18.73041 16987 ft 329 kts 137°
2026-05-07 21:18 47.62164 18.75553 16557 ft 328 kts 136°
2026-05-07 21:18 47.60637 18.78057 16157 ft 327 kts 137°
2026-05-07 21:19 47.59115 18.80549 15767 ft 326 kts 136°
2026-05-07 21:19 47.57595 18.83036 15369 ft 326 kts 136°
2026-05-07 21:19 47.56072 18.85525 14969 ft 326 kts 136°
2026-05-07 21:19 47.54555 18.88008 14571 ft 326 kts 136°
2026-05-07 21:20 47.53034 18.90494 14174 ft 326 kts 136°
2026-05-07 21:20 47.51510 18.92981 13765 ft 326 kts 136°
2026-05-07 21:20 47.50010 18.95434 13339 ft 326 kts 135°
2026-05-07 21:20 47.48494 18.97915 12925 ft 324 kts 135°
2026-05-07 21:21 47.46984 19.00379 12528 ft 323 kts 135°
2026-05-07 21:21 47.45479 19.02830 12119 ft 321 kts 135°
2026-05-07 21:21 47.43976 19.05272 11695 ft 321 kts 135°
2026-05-07 21:21 47.42473 19.07713 11247 ft 321 kts 135°
2026-05-07 21:22 47.40971 19.10148 10830 ft 320 kts 135°
2026-05-07 21:22 47.39477 19.12573 10400 ft 319 kts 135°
2026-05-07 21:22 47.37989 19.14988 10065 ft 316 kts 135°
2026-05-07 21:22 47.36536 19.17342 9941 ft 304 kts 135°
2026-05-07 21:23 47.35130 19.19622 9678 ft 298 kts 135°
2026-05-07 21:23 47.33734 19.21879 9270 ft 297 kts 135°
2026-05-07 21:23 47.32342 19.24124 8868 ft 296 kts 135°
2026-05-07 21:23 47.30953 19.26360 8476 ft 295 kts 135°
2026-05-07 21:24 47.29572 19.28582 8081 ft 293 kts 135°
2026-05-07 21:24 47.28197 19.30791 7689 ft 292 kts 135°
2026-05-07 21:24 47.26826 19.32995 7302 ft 291 kts 134°
2026-05-07 21:24 47.25469 19.35176 7037 ft 285 kts 134°
2026-05-07 21:25 47.24251 19.37394 6904 ft 275 kts 120°
2026-05-07 21:25 47.23782 19.40072 6642 ft 273 kts 89°
2026-05-07 21:25 47.24288 19.42726 6235 ft 272 kts 58°
2026-05-07 21:25 47.25580 19.44751 5707 ft 269 kts 39°
2026-05-07 21:26 47.26975 19.46568 5147 ft 266 kts 40°
2026-05-07 21:26 47.28401 19.48254 4560 ft 260 kts 23°
2026-05-07 21:26 47.30081 19.48632 4203 ft 237 kts 343°
2026-05-07 21:26 47.31052 19.48000 3974 ft 229 kts 319°
2026-05-07 21:27 47.32014 19.46152 3492 ft 229 kts 297°
2026-05-07 21:27 47.32963 19.44286 3154 ft 225 kts 310°
2026-05-07 21:27 47.34025 19.42651 2843 ft 217 kts 311°
2026-05-07 21:27 47.35033 19.41067 2560 ft 204 kts 310°
2026-05-07 21:28 47.35969 19.39570 2315 ft 192 kts 310°
2026-05-07 21:28 47.36827 19.38194 2049 ft 173 kts 310°
2026-05-07 21:28 47.37607 19.36940 1837 ft 159 kts 310°
2026-05-07 21:28 47.38330 19.35775 1623 ft 149 kts 310°
2026-05-07 21:29 47.39019 19.34667 1428 ft 145 kts 310°
2026-05-07 21:29 47.39695 19.33577 1210 ft 144 kts 311°
2026-05-07 21:29 47.40373 19.32481 1017 ft 145 kts 310°
2026-05-07 21:29 47.41054 19.31385 829 ft 145 kts 311°
2026-05-07 21:30 47.41735 19.30291 640 ft 145 kts 311°
2026-05-07 21:30 47.42413 19.29195 463 ft 145 kts 311°
2026-05-07 21:30 47.43023 19.28208 458 ft 110 kts 312°
2026-05-07 21:30 47.43421 19.27570 468 ft 61 kts 312°
2026-05-07 21:31 47.43619 19.27250 474 ft 34 kts 311°
2026-05-07 21:31 47.43735 19.26947 469 ft 35 kts 288°
2026-05-07 21:31 47.43789 19.26603 459 ft 26 kts 284°
2026-05-07 21:31 47.43775 19.26449 458 ft 14 kts 223°
2026-05-07 21:32 47.43701 19.26352 458 ft 15 kts 222°
2026-05-07 21:32 47.43621 19.26244 457 ft 17 kts 222°
2026-05-07 21:32 47.43546 19.26143 457 ft 12 kts 223°
2026-05-07 21:32 47.43489 19.26066 457 ft 8 kts 221°
2026-05-07 21:33 47.43462 19.26056 457 ft 3 kts 157°
2026-05-07 21:33 47.43448 19.26075 456 ft 2 kts 133°
2026-05-07 21:33 47.43437 19.26094 457 ft 4 kts 132°
2026-05-07 21:33 47.43421 19.26119 457 ft 3 kts 132°
2026-05-07 21:34 47.43413 19.26132 457 ft 1 kts 132°
2026-05-07 21:34 47.43412 19.26133 457 ft 0 kts 132°